Probability
0 0 0 0 0 0 0 0 0 0 0 0 0 0 0 0 0 0 0 0 0 0 0 0 0 0 0 0 0 0 0 0 0 0 0 0 0 0 0 0 0 0 0 0
0 0 0 0 0 0 0 0 0 0 0 0 0 0 0 0 0 0 0 0 0 0 0 0 0 0 0 0 0 0 0 0 0 0 0 0 0 0 0 0 0 0 0 0
0 0 0 0 0 0 0 0 0 0 0 0 0 0 0 0 0 0 0 0 0 0 0 0 0 0 0 0 0 0 0 0 0 0 0 0 0 0 0 0 0 0 0 0
0 0 0 0 0 0 0 0 0 0 0 0 0 0 0 0 0 0 0 0 0 0 0 0 0 0 0 0 0 0 0 0 0 0 0 0 0 0 0 0 0 0 0 0
0 0 0 0 0 0 0 0 0 0 0 0 0 0 0 0 0 0 0 0 0 0 0 0 0 0 0 0 0 0 0 0 0 0 0 0 0 0 0 0 0 0 0 0
0 0 0 0 0 0 0 0 0 0 0 0 0 0 0 0 0 0 0 0 0 0 0 0 0 0 0 0 0 0 0 0 0 0 0 0 0 0 0 0 0 0 0 0
0 0 0 0 0 0 0 0 0 0 0 0 0 0 0 0 0 0 0 0 0 0 0 0 0 0 0 0 0 0 0 0 0 0 0 0 0 0 0 0 0 0 0 0
0 0 0 0 0 0 0 0 0 0 0 0 0 0 0 0 0 0 0 0 0 0 0 0 0 0 0 0 0 0 0 0 0 0 0 0 0 0 0 0 0 0 0 0
0 0 0 0 0 0 0 0 0 0 0 0 0 0 0 0 0 0 0 0 0 0 0 0 0 0 0 0 0 0 0 0 0 0 0 0 0 0 0 0 0 0 0 0
0 0 0 0 0 0 0 0 0 0 0 0 0 0 0 0 0 0 0 0 0 0 0 0 0 0 0 0 0 0 0 0 0 0 0 0 0 0 0 0 0 0 0 0
0 0 0 0 0 0 0 0 0 0 0 0 0 0 0 0 0 0 0 0 0 0 0 0 0 0 0 0 0 0 0 0 0 0 0 0 0 0 0 0 0 0 0 0
0 0 0 0 0 0 0 0 0 0 0 0 0 0 0 0 0 0 0 0 0 0 0 0 0 0 0 0 0 0 0 0 0 0 0 0 0 0 0 0 0 0 0 0
0 0 0 0 0 0 0 0 0 0 0 0 0 0 0 0 0 0 0 0 0 0 0 0 0 0 0 0 0 0 0 0 0 0 0 0 0 0 0 0 0 0 0 0
0 0 0 0 0 0 0 0 0 0 0 0 0 0 0 0 0 0 0 0 0 0 0 0 0 0 0 0 0 0 0 0 0 0 0 0 0 0 0 0 0 0 0 0
0 0 0 0 0 0 0 0 0 0 0 0 0 0 0 0 0 0 0 0 0 0 0 0 0 0 0 0 0 0 0 0 0 0 0 0 0 0 0 0 0 0 0 0
0 0 0 0 0 0 0 0 0 0 0 0 0 0 0 0 0 0 0 0 0 0 0 0 0 0 0 0 0 0 0 0 0 0 0 0 0 0 0 0 0 0 0 0
0 0 0 0 0 0 0 0 0 0 0 0 0 0 0 0 0 0 0 0 0 0 0 0 0 0 0 0 0 0 0 0 0 0 0 0 0 0 0 0 0 0 0 0
0 0 0 0 0 0 0 0 0 0 0 0 0 0 0 0 0 0 0 0 0 0 0 0 0 0 0 0 0 0 0 0 0 0 0 0 0 0 0 0 0 0 0 0
0 0 0 0 0 0 0 0 0 0 0 0 0 0 0 0 0 0 0 0 0 0 0 0 0 0 0 0 0 0 0 0 0 0 0 0 0 0 0 0 0 0 0 0
0 0 0 0 0 0 0 0 0 0 0 0 0 0 0 0 0 0 0 0 0 0 0 0 0 0 0 0 0 0 0 0 0 0 0 0 0 0 0 0 0 0 0 0
0 0 0 0 0 0 0 0 0 0 0 0 0 0 0 0 0 0 0 0 0 0 0 0 0 0 0 0 0 0 0 0 0 0 0 0 0 0 0 0 0 0 0 0
0 0 0 0 0 0 0 0 0 0 0 0 0 0 0 0 0 0 0 0 0 0 0 0 0 0 0 0 0 0 0 0 0 0 0 0 0 0 0 0 0 0 0 0
0 0 0 0 0 0 0 0 0 0 0 0 0 0 0 0 0 0 0 0 0 0 0 0 0 0 0 0 0 0 0 0 0 0 0 0 0 0 0 0 0 0 0 0
0 0 0 0 0 0 0 0 0 0 0 0 0 0 0 0 0 0 0 0 0 0 0 0 0 0 0 0 0 0 0 0 0 0 0 0 0 0 0 0 0 0 0 0
0 0 0 0 0 0 0 0 0 0 0 0 0 0 0 0 0 0 0 0 0 0 0 0 0 0 0 0 0 0 0 0 0 0 0 0 0 0 0 0 0 0 0 0
0 0 0 0 0 0 0 0 0 0 0 0 0 0 0 0 0 0 0 0 0 0 0 0 0 0 0 0 0 0 0 0 0 0 0 0 0 0 0 0 0 0 0 0
Height
5709 5709 5709 5710 5709 5709 5709 5708 5708 5707 5706 5705 5704 5704 5703 5702 5702 5701 5699 5698 5697 5696 5695 5694 5694 5694 5694 5694 5694 5694 5695 5695 5696 5696 5697 5698 5698 5698 5699 5699 5699 5700 5701 5701
5702 5702 5703 5702 5701 5700 5700 5699 5699 5698 5697 5696 5694 5693 5693 5691 5690 5689 5688 5687 5685 5685 5684 5683 5683 5682 5682 5682 5682 5683 5684 5684 5684 5685 5685 5686 5686 5687 5687 5687 5688 5688 5689 5689
5695 5696 5695 5694 5693 5692 5691 5691 5690 5689 5687 5685 5684 5683 5682 5680 5679 5678 5676 5675 5674 5673 5672 5672 5671 5671 5671 5670 5671 5671 5672 5672 5672 5672 5673 5674 5674 5675 5675 5676 5676 5676 5676 5677
5687 5687 5686 5685 5685 5684 5683 5682 5680 5678 5676 5674 5673 5670 5671 5669 5668 5667 5665 5664 5663 5662 5661 5660 5659 5659 5658 5658 5658 5658 5659 5660 5660 5660 5660 5661 5662 5663 5663 5663 5663 5664 5664 5664
5680 5679 5678 5677 5677 5675 5673 5672 5670 5668 5665 5663 5661 5658 5660 5658 5657 5656 5654 5653 5652 5650 5649 5648 5647 5646 5646 5646 5646 5646 5647 5647 5648 5648 5649 5649 5649 5650 5650 5651 5651 5651 5651 5652
5672 5671 5669 5668 5667 5666 5664 5662 5660 5657 5654 5652 5651 5648 5647 5647 5646 5644 5643 5641 5639 5638 5637 5636 5635 5634 5634 5634 5634 5634 5634 5635 5635 5636 5636 5636 5636 5637 5637 5638 5638 5638 5639 5639
5665 5663 5661 5659 5658 5656 5654 5653 5649 5646 5643 5642 5641 5637 5637 5636 5635 5633 5631 5629 5627 5626 5625 5624 5623 5622 5621 5621 5621 5621 5621 5622 5622 5622 5622 5623 5623 5623 5624 5625 5625 5625 5626 5626
5656 5655 5653 5650 5649 5647 5645 5643 5640 5636 5634 5632 5630 5627 5628 5626 5624 5621 5620 5618 5616 5614 5613 5611 5610 5609 5609 5608 5608 5608 5608 5608 5608 5609 5609 5609 5609 5610 5610 5611 5611 5611 5612 5613
5647 5646 5644 5642 5639 5638 5635 5632 5631 5628 5624 5621 5619 5618 5617 5615 5613 5611 5609 5606 5604 5603 5601 5599 5598 5597 5596 5595 5595 5594 5594 5594 5594 5594 5595 5595 5595 5595 5596 5596 5596 5597 5598 5598
5638 5637 5635 5632 5630 5628 5626 5623 5621 5617 5613 5610 5609 5607 5607 5604 5602 5600 5597 5595 5593 5591 5589 5587 5585 5584 5583 5582 5582 5581 5580 5580 5580 5580 5580 5581 5581 5581 5581 5581 5582 5582 5583 5584
5630 5628 5626 5623 5620 5618 5617 5614 5610 5607 5604 5601 5598 5600 5597 5594 5591 5589 5586 5583 5581 5579 5577 5575 5573 5572 5571 5570 5569 5568 5567 5566 5566 5566 5566 5566 5566 5566 5567 5566 5567 5567 5568 5568
5621 5619 5616 5614 5612 5609 5606 5604 5601 5599 5595 5591 5589 5591 5586 5583 5580 5577 5575 5572 5570 5568 5566 5563 5561 5560 5558 5557 5556 5555 5554 5553 5552 5552 5552 5552 5552 5552 5552 5552 5552 5552 5553 5553
5613 5610 5607 5605 5604 5601 5597 5594 5592 5589 5586 5582 5580 5582 5576 5573 5570 5567 5564 5561 5559 5557 5554 5552 5550 5548 5546 5545 5543 5542 5541 5540 5539 5538 5538 5537 5537 5537 5537 5537 5537 5537 5537 5538
5604 5602 5600 5597 5593 5590 5588 5586 5582 5579 5576 5573 5571 5570 5567 5563 5560 5557 5554 5551 5548 5545 5543 5541 5538 5536 5534 5532 5531 5529 5528 5527 5526 5525 5524 5523 5523 5522 5522 5522 5521 5521 5521 5522
5596 5594 5591 5588 5584 5581 5579 5576 5573 5570 5567 5564 5563 5560 5557 5553 5550 5546 5543 5540 5537 5535 5532 5529 5527 5525 5523 5521 5518 5517 5515 5514 5513 5512 5511 5510 5509 5508 5507 5507 5507 5506 5506 5506
5588 5586 5583 5580 5576 5572 5570 5568 5564 5561 5559 5556 5553 5551 5547 5543 5539 5536 5532 5529 5526 5523 5520 5518 5515 5513 5511 5508 5506 5505 5503 5502 5500 5500 5499 5497 5496 5495 5494 5493 5493 5492 5492 5491
5580 5577 5574 5571 5568 5564 5562 5560 5556 5553 5550 5548 5545 5543 5538 5535 5530 5527 5523 5519 5515 5512 5509 5506 5503 5501 5499 5497 5495 5493 5491 5490 5488 5487 5486 5485 5484 5483 5482 5481 5480 5479 5478 5478
5571 5568 5565 5562 5560 5556 5557 5551 5548 5545 5542 5539 5536 5532 5529 5525 5521 5517 5513 5509 5505 5502 5498 5495 5493 5490 5488 5485 5483 5481 5479 5478 5477 5476 5475 5473 5473 5472 5470 5469 5468 5466 5465 5464
5563 5560 5556 5553 5549 5547 5547 5543 5539 5536 5534 5530 5526 5523 5519 5515 5511 5507 5503 5499 5495 5492 5488 5485 5482 5480 5477 5475 5473 5470 5469 5467 5466 5464 5463 5462 5461 5460 5459 5458 5456 5455 5453 5452
5555 5552 5549 5544 5540 5538 5539 5535 5530 5528 5525 5522 5518 5514 5510 5506 5502 5499 5493 5489 5485 5481 5478 5475 5472 5469 5467 5464 5462 5460 5458 5456 5455 5453 5452 5451 5450 5449 5447 5446 5444 5443 5441 5440
5547 5543 5540 5536 5532 5530 5529 5525 5522 5520 5518 5513 5509 5505 5501 5497 5493 5489 5484 5479 5475 5471 5468 5465 5462 5459 5457 5454 5452 5450 5447 5446 5444 5442 5441 5440 5438 5437 5436 5435 5433 5431 5429 5428
5538 5535 5532 5528 5525 5525 5521 5517 5514 5511 5507 5503 5500 5496 5492 5488 5483 5479 5474 5470 5466 5462 5458 5455 5452 5449 5446 5444 5442 5440 5437 5435 5433 5431 5430 5429 5427 5426 5424 5423 5421 5419 5417 5416
5530 5527 5523 5521 5520 5516 5512 5508 5505 5502 5499 5495 5491 5488 5483 5479 5474 5470 5465 5461 5457 5453 5450 5446 5443 5440 5437 5434 5432 5430 5427 5425 5423 5421 5420 5418 5416 5414 5413 5411 5409 5407 5405 5403
5522 5518 5515 5512 5510 5507 5503 5500 5497 5494 5490 5487 5483 5479 5475 5470 5466 5461 5457 5453 5449 5445 5441 5438 5435 5431 5428 5425 5423 5420 5418 5416 5413 5411 5410 5407 5406 5404 5401 5399 5397 5395 5393 5391
5513 5509 5506 5504 5502 5499 5495 5492 5489 5486 5482 5479 5475 5471 5466 5462 5458 5453 5449 5445 5441 5437 5433 5430 5427 5424 5420 5417 5414 5412 5409 5407 5404 5402 5399 5397 5395 5393 5390 5388 5385 5383 5381 5378
5505 5502 5499 5497 5494 5491 5488 5484 5481 5478 5474 5471 5467 5462 5458 5454 5450 5445 5441 5437 5433 5429 5426 5422 5419 5416 5412 5409 5406 5403 5400 5398 5395 5392 5389 5387 5384 5381 5379 5376 5374 5371 5369 5366
Wind_Speed
24 25 25 26 27 29 29 30 31 32 33 34 34 35 36 36 37 37 38 39 39 39 40 41 41 41 42 42 42 41 41 42 43 43 44 44 43 44 44 45 44 45 45 45
25 26 25 27 28 29 30 31 32 33 33 35 36 36 37 37 38 38 38 39 39 40 40 40 41 41 42 42 42 42 42 42 44 44 45 45 45 45 45 45 45 45 46 46
25 25 26 28 29 30 32 32 33 34 34 36 37 37 37 37 38 38 38 39 39 39 40 40 40 41 41 42 43 44 43 43 43 44 45 46 46 46 46 46 46 46 47 47
24 25 26 28 29 30 32 33 34 35 36 36 37 39 37 37 37 37 38 39 39 40 40 41 41 42 42 42 43 44 44 44 44 44 45 46 47 47 47 48 48 48 48 48
25 26 27 28 28 30 32 33 34 35 36 37 37 39 38 37 37 37 38 39 39 40 41 41 42 43 43 43 43 44 45 46 46 46 46 46 47 47 48 49 49 49 49 48
26 27 28 29 29 30 32 32 34 35 36 37 36 38 38 36 36 37 37 38 39 40 41 41 42 43 43 44 44 45 46 47 47 47 47 47 48 48 48 49 49 49 50 50
27 27 28 29 30 30 31 32 33 35 36 36 36 37 37 36 36 36 37 37 38 39 40 41 42 43 44 45 46 46 46 47 49 49 49 49 49 49 50 50 50 50 51 51
28 28 29 29 30 30 31 32 33 35 36 36 36 37 37 36 36 36 37 38 38 39 40 41 42 43 44 45 46 47 48 48 49 50 50 50 51 51 51 51 51 51 51 51
29 30 30 30 30 30 31 31 32 34 36 36 36 37 37 36 36 36 37 38 39 40 41 42 42 42 43 44 46 47 47 48 49 50 50 51 51 52 52 52 52 52 53 52
29 30 30 30 31 31 31 31 32 34 36 37 37 37 37 36 36 37 37 37 38 39 40 41 41 42 43 43 44 45 46 47 48 49 49 50 51 52 52 53 53 53 53 53
29 30 30 30 30 30 31 31 32 34 35 37 38 37 37 37 37 37 37 36 36 37 38 39 40 41 42 42 43 44 45 46 47 48 48 49 50 51 51 52 53 53 53 53
28 29 30 29 29 30 31 31 31 33 34 35 37 37 37 37 37 37 37 38 37 38 38 39 39 40 40 41 42 43 44 45 46 47 48 48 49 50 51 52 52 53 53 54
28 29 30 29 29 29 30 31 31 32 33 34 35 35 36 37 37 37 37 38 38 38 39 39 39 39 39 40 41 42 43 44 44 45 46 47 48 48 49 50 51 52 53 54
28 29 29 29 29 30 29 29 30 31 33 33 33 34 35 36 36 37 37 38 38 38 39 39 39 39 39 40 41 41 42 43 43 44 45 46 46 47 48 49 49 51 52 53
29 29 29 29 30 30 30 29 30 31 31 32 32 33 33 35 36 37 37 38 38 38 39 40 40 40 40 39 40 40 41 42 42 42 43 43 44 45 46 47 47 48 49 50
29 29 29 29 29 30 29 29 30 30 30 30 31 31 32 34 35 36 37 37 37 38 38 39 39 39 39 38 39 40 40 40 41 40 40 40 40 41 42 43 44 45 46 47
29 30 30 29 29 29 29 28 29 29 30 30 31 31 32 33 34 35 36 36 37 37 38 38 37 37 38 38 38 37 38 38 38 38 38 38 39 39 40 41 41 43 44 45
29 30 30 30 29 29 28 28 29 29 29 30 31 31 33 34 34 34 35 36 36 36 36 35 35 35 35 36 36 36 36 36 36 37 37 38 38 38 38 39 40 40 41 42
28 29 30 30 31 30 28 29 29 29 28 29 31 32 33 33 34 34 35 35 35 34 34 34 34 34 34 35 35 35 35 36 36 37 37 37 38 37 37 38 39 39 40 40
28 29 29 30 31 31 29 29 30 30 29 30 31 31 32 32 33 33 34 34 34 34 34 34 34 35 35 35 35 34 34 35 35 36 36 37 37 38 37 37 37 38 38 39
29 29 29 30 31 31 30 30 30 30 30 30 30 31 31 32 32 33 33 33 34 34 34 33 33 34 34 34 34 33 34 34 35 35 36 36 37 37 37 37 37 38 38 38
30 30 30 30 30 30 30 30 29 30 30 30 31 31 31 32 32 32 32 32 33 32 32 32 32 33 33 33 33 33 33 33 33 34 35 35 35 36 36 37 38 38 38 39
30 30 30 29 29 28 28 28 29 29 29 30 30 30 30 31 31 31 31 31 31 31 30 30 30 31 31 31 31 31 32 32 32 33 33 34 34 35 36 36 37 38 38 38
29 29 29 28 27 28 28 28 28 29 29 29 29 29 30 30 31 30 30 29 29 29 29 29 29 29 29 29 30 30 31 31 32 32 33 33 34 35 35 36 37 37 37 38
28 28 28 27 27 28 27 27 28 28 28 28 29 30 30 30 30 29 29 29 29 29 28 28 27 27 28 28 28 29 29 30 31 32 32 33 34 35 35 36 36 37 37 38
27 28 27 26 26 27 26 27 27 28 29 29 29 30 30 30 29 29 29 29 28 28 27 27 27 27 27 27 27 28 29 29 30 31 32 33 34 34 35 35 36 36 36 37
Wind_Direction
268 268 268 270 271 271 271 270 269 269 269 269 268 269 268 268 268 268 269 268 268 268 267 266 265 264 263 262 261 260 259 258 258 258 259 260 260 261 260 260 261 261 260 260
270 270 270 270 271 271 272 271 272 272 272 272 272 271 271 271 270 269 269 269 268 268 268 267 266 265 264 262 260 259 259 259 258 258 259 259 260 260 260 260 260 260 260 259
273 272 270 271 271 272 273 274 274 275 275 273 273 273 273 273 272 271 269 269 269 268 268 268 267 266 265 263 261 260 259 258 259 259 259 259 260 260 260 260 260 260 260 260
276 274 271 272 272 273 274 276 277 277 277 276 275 275 274 274 273 272 270 270 269 268 268 267 267 266 264 262 261 260 259 259 259 260 260 260 260 260 260 261 261 261 260 261
279 277 275 274 275 275 276 277 278 278 278 277 276 277 277 276 275 274 272 271 270 269 268 268 267 266 264 262 261 260 259 259 260 261 261 261 261 260 260 260 261 261 260 261
280 279 279 278 277 276 277 278 279 278 279 279 279 279 278 278 278 276 274 273 272 271 270 268 267 266 264 263 261 261 260 260 260 261 261 261 260 260 260 261 261 261 261 261
282 283 282 281 279 279 280 281 281 280 280 281 281 280 280 280 279 278 276 276 274 273 271 270 269 268 266 265 263 262 261 261 260 261 262 261 260 260 261 261 261 261 261 261
284 285 284 283 282 282 283 282 282 282 282 283 282 281 281 281 280 279 278 277 275 274 272 271 271 269 268 267 266 264 263 262 261 261 262 262 261 261 262 262 261 261 261 261
287 286 285 285 284 283 283 282 283 283 284 284 283 282 282 282 282 281 280 279 277 276 274 273 272 270 269 268 267 266 265 263 262 262 262 262 262 262 262 263 262 261 261 261
288 287 287 286 284 282 282 284 285 284 284 285 284 284 284 283 283 282 282 281 280 279 278 277 274 272 270 269 269 268 267 266 264 263 263 263 263 262 263 263 263 262 261 261
289 289 289 288 286 285 283 284 285 285 284 285 286 286 286 286 286 286 285 284 283 282 281 279 277 275 274 272 270 270 269 268 266 265 265 264 263 263 263 263 263 263 262 262
291 291 290 289 287 285 284 284 285 285 285 286 287 287 287 287 287 287 286 285 284 283 282 281 280 278 276 274 273 272 271 270 269 267 265 265 264 264 264 264 264 263 263 263
295 293 293 290 289 288 287 287 287 288 287 286 287 288 288 287 287 287 287 286 285 283 282 281 280 278 277 276 275 274 273 272 270 269 267 267 266 265 265 265 265 264 264 263
296 295 294 293 291 291 289 289 288 288 289 288 288 289 289 288 288 288 288 286 286 284 283 282 280 279 278 277 276 275 274 273 272 271 270 269 268 266 266 266 266 266 265 264
296 296 296 294 292 289 289 289 289 289 290 291 291 291 291 290 290 289 288 287 286 285 284 282 281 279 280 279 277 276 274 273 272 273 273 271 270 268 267 267 267 267 266 265
295 296 297 295 294 290 289 290 291 290 291 292 292 292 292 292 291 291 290 289 287 286 284 283 281 281 281 280 279 277 276 274 273 272 273 272 271 270 269 269 269 268 267 265
295 297 297 297 296 294 290 290 292 292 292 293 294 294 293 293 293 293 292 291 289 289 287 286 283 282 281 280 280 279 276 275 273 272 271 272 272 272 272 271 271 270 269 267
296 298 297 297 296 296 295 293 293 293 293 294 294 294 294 294 294 294 294 293 292 291 289 288 285 284 282 281 279 279 277 275 274 272 271 271 272 273 273 272 272 272 271 270
298 298 297 297 296 296 295 294 294 294 294 295 296 296 295 296 296 295 295 294 292 290 289 288 285 283 283 282 282 280 279 277 276 274 272 272 272 273 273 273 273 273 273 271
299 298 297 296 297 297 298 296 296 295 295 297 298 298 298 298 297 296 296 296 294 292 290 288 286 285 284 283 283 282 280 278 277 276 274 274 273 273 273 273 273 274 273 273
298 297 296 295 296 297 298 297 297 297 299 299 300 301 301 300 300 300 299 297 296 294 292 290 288 286 284 284 284 283 281 280 279 277 276 275 275 274 274 274 274 275 275 274
298 297 297 297 297 299 298 297 297 298 298 300 301 302 303 303 303 303 301 300 299 297 295 294 292 289 286 285 285 284 282 281 280 279 277 277 276 276 276 275 276 276 277 276
297 297 296 296 297 297 297 297 298 298 300 301 302 304 305 306 305 305 303 303 302 300 298 296 294 292 289 287 285 284 283 282 280 279 278 278 278 278 278 277 277 277 278 278
297 295 294 293 293 293 294 296 297 298 300 301 303 305 306 307 307 306 305 305 304 303 300 298 296 294 292 289 287 286 284 283 283 281 279 279 279 280 280 279 279 278 278 278
297 295 294 293 293 293 294 294 295 296 298 300 302 304 306 307 307 307 306 306 305 304 301 299 299 297 295 293 290 289 288 286 285 285 283 283 282 282 282 281 280 280 279 279
296 293 292 294 294 294 294 294 295 296 298 300 303 304 306 306 306 306 306 306 305 305 304 302 300 299 298 296 293 291 290 290 289 288 287 286 285 285 284 283 282 282 281 280